Regional Weather Roundup
Issued by NWS

Home | Current Version | Previous Version | Text Only | Print | Product List | Glossary On
Versions: 1 2 3 4 5 6 7 8 9 10 11 12 13 14 15 16 17 18 19 20 21 22 23 24 25 26 27 28 29 30 31 32 33 34 35 36 37 38 39 40 41 42 43 44 45 46 47 48 49 50
788
ASUS43 KMPX 232001
RWRMN
WEATHER ROUNDUP FOR MINNESOTA
NATIONAL WEATHER SERVICE TWIN CITIES/CHANHASSEN MN
300 PM CDT THU MAR 23 2017


NOTE: "FAIR" INDICATES FEW OR NO CLOUDS BELOW 12,000 FEET WITH NO
SIGNIFICANT WEATHER AND/OR OBSTRUCTIONS TO VISIBILITY. N/A MEANS
CURRENT SKY AND/OR WEATHER CONDITIONS ARE NOT AVAILABLE.

MNZ060>063-068>070-232100-
   Twin Cities Metro

CITY           SKY/WX    TMP DP  RH WIND       PRES   REMARKS
TWIN CITIES    CLOUDY    39  28  64 SE15      29.95F
ST PAUL        CLOUDY    39  30  70 S15       29.97F
CRYSTAL        CLOUDY    39  27  62 S16G23    29.94R
BLAINE         CLOUDY    41  30  65 S15G21    29.95R
LAKEVILLE      CLOUDY    37  30  75 S12G18    29.95R
EDEN PRAIRIE   CLOUDY    40  28  62 S12       29.94R
SOUTH ST PAUL  CLOUDY    40  28  64 SE7       29.95S
LAKE ELMO      CLOUDY    39  30  70 S13       29.97S
$$
MNZ001>005-007-008-013>017-022>024-027-028-232100-
   Northwest Minnesota

CITY           SKY/WX    TMP DP  RH WIND       PRES   REMARKS
BEMIDJI        LGT RAIN  35  32  88 SE5       29.86F WCI  31
HALLOCK        CLOUDY    36  34  93 S14       29.80F
ROSEAU         CLOUDY    37  32  81 S13       29.83R
WARROAD        CLOUDY    39  34  81 S8G16     29.83S
THIEF RVR FALL LGT RAIN N/A N/A N/A SE9       29.84F
CROOKSTON      MIX PCPN  34  34 100 SE6       29.84F WCI  29
FOSSTON        LGT RAIN  36  30  80 SE5       29.85F
DETROIT LAKES  RAIN      37  30  75 SE8       29.83F
MOORHEAD       DRIZZLE   37  28  70 SE12      29.82F
PARK RAPIDS    CLOUDY    39  24  55 S13       29.85S
MAHNOMEN       CLOUDY    41  28  60 S8        29.83F
$$
MNZ006-009>011-018-025>026-232100-
   North Central Minnesota

CITY           SKY/WX    TMP DP  RH WIND       PRES   REMARKS
BAUDETTE       LGT RAIN  35  31  85 S9        29.85S WCI  28
FLAG ISLAND    CLOUDY    34  28  80 S13       29.81S WCI  25
INTL FALLS     LGT SNOW  36  28  73 VRB5      29.87F
WASKISH        LGT RAIN  36  32  87 S6        29.87S
BIG FORK       MIX PCPN  34  30  86 S5        29.90S WCI  30
LONGVILLE      DRIZZLE   37  27  65 S8        29.87F
GRAND RAPIDS   LGT RAIN  35  27  72 SE8       29.90F WCI  29
CRANE LAKE     LGT SNOW  36  25  64 S7        29.93R
ORR            LGT SNOW  34  27  75 CALM      29.89S
COOK           MIX PCPN  34  28  80 S6        29.92S WCI  29
WALKER         LGT RAIN  37  25  62 S9        29.86F
$$
MNZ012-019>021-037-232100-
   Northeast Minnesota

CITY           SKY/WX    TMP DP  RH WIND       PRES   REMARKS
DULUTH         LGT RAIN  34  28  79 SE12      29.92F WCI  25
ELY            RAIN      34  25  69 S7        29.92F WCI  28
HIBBING        MIX PCPN  32  28  85 S7        29.91F FOG     WCI  26
EVELETH        MIX PCPN  34  27  75 S7        29.93F WCI  28
DULUTH HARBOR  LGT RAIN  37  28  70 CALM      29.97F
TWO HARBORS    LGT RAIN  37  28  70 SE5       29.94F
SILVER BAY     DRIZZLE   34  28  80 SE5       29.96F WCI  30
GRAND MARAIS     N/A     34  29  82 S3        30.02F
G MARAIS ARPRT CLOUDY    28  21  74 S7        29.97F WCI  21
$$
MNZ029>031-032-039>041-046>048-054>057-064-232100-
   West Central Minnesota

CITY           SKY/WX    TMP DP  RH WIND       PRES   REMARKS
FERGUS FALLS   DRIZZLE   37  30  75 S12       29.87S
WHEATON        RAIN      37  36  93 SE10      29.82F
MORRIS         CLOUDY    39  30  70 SE16      29.81R
ALEXANDRIA     CLOUDY    38  27  64 SE15G23   29.84F
ELBOW LAKE     RAIN      36  33  87 SE18G25   29.84R
WADENA         CLOUDY    37  27  65 SE8       29.84F
GLENWOOD       CLOUDY    37  28  70 E13G18    29.84S
APPLETON       RAIN      39  36  87 CALM      29.80F
BENSON         RAIN      39  32  75 SE9G17    29.83F
ORTONVILLE     CLOUDY    37  34  87 SE10      29.79F FOG
MADISON        DRIZZLE   39  39 100 SE8       29.79S
WILLMAR        CLOUDY    39  36  87 SE20G26   29.82F
$$
MNZ033>034-036-042>043-049>051-058-059-232100-
   Central Minnesota

CITY           SKY/WX    TMP DP  RH WIND       PRES   REMARKS
ST CLOUD       LGT RAIN  38  28  67 SE14      29.90F
SAUK CENTRE    CLOUDY    37  28  69 SE14      29.86F
PAYNESVILLE    RAIN      36  32  86 SE23G29   29.78F
AITKIN         CLOUDY    41  21  45 S8        29.88F
PINE RIVER     CLOUDY    37  27  65 S10       29.92S
BRAINERD       LGT RAIN  39  25  57 S12       29.90R
STAPLES        CLOUDY    37  25  60 SE12      29.86F
LONG PRAIRIE   CLOUDY    36  28  75 E9        29.85F
LITTLE FALLS   CLOUDY    37  27  65 SE15      29.87F
LITCHFIELD     CLOUDY    39  32  75 E14       29.87F
BUFFALO        CLOUDY    38  28  65 SE10G18   29.94S
MAPLE LAKE     CLOUDY    39  31  71 S7G18     29.95S
HUTCHINSON     DRIZZLE   38  33  80 SE12      29.89F
$$
MNZ037-044-045-052-053-232100-
   East Central Minnesota

CITY           SKY/WX    TMP DP  RH WIND       PRES   REMARKS
PRINCETON      CLOUDY    41  27  56 SE12G18   29.93F
MORA           CLOUDY    36  23  60 S14       29.96S
CAMBRIDGE      CLOUDY    41  27  56 SE12G17   29.93S
RUSH CITY      CLOUDY    38  28  67 S12G18    29.94R
MOOSE LAKE     CLOUDY    37  23  56 S7        29.89F
HINCKLEY       CLOUDY    37  27  65 SE8       29.93F
CLOQUET        LGT RAIN  36  25  64 SE7       29.91F
MCGREGOR       CLOUDY    37  27  65 SE8       29.89F
$$
MNZ071>073-080-081-089-090-097-098-232100-
   Southwest Minnesota

CITY           SKY/WX    TMP DP  RH WIND       PRES   REMARKS
MONTEVIDEO     CLOUDY    37  34  87 S21       29.79F
GRANITE FALLS  CLOUDY    40  33  76 E17G25    29.81F
CANBY          CLOUDY    40  36  85 SE12      29.78S
MARSHALL       CLOUDY    42  33  70 S16       29.77F
REDWOOD FALLS  CLOUDY    42  30  62 SE23G29   29.82F
OLIVIA         LGT RAIN  36  32  87 SE12      29.84F
PIPESTONE      CLOUDY    39  34  81 S13G22    29.74F
WINDOM         CLOUDY    41  32  70 SE17G23   29.80F
WORTHINGTON    CLOUDY    40  35  83 SE16      29.78F
JACKSON        CLOUDY    39  32  75 SE14      29.81F
TRACY          CLOUDY    42  34  74 S15       29.77F
SLAYTON        CLOUDY    37  33  85 SE17      29.78F
$$
MNZ065>067-074>077-082>085-091>093-232100-
   South Central Minnesota

CITY           SKY/WX    TMP DP  RH WIND       PRES   REMARKS
MANKATO        CLOUDY    38  29  70 SE18      29.88F
NEW ULM        CLOUDY    39  28  65 SE13      29.87F
ST JAMES       CLOUDY    41  32  70 SE18G28   29.86F
FAIRMONT       CLOUDY    39  32  76 SE21      29.83F
GLENCOE        CLOUDY    39  32  75 SE12      29.90F
FARIBAULT      CLOUDY    37  30  75 SE16G22   29.94F
OWATONNA       CLOUDY    37  30  75 SE17G23   29.92F
WASECA         CLOUDY    36  30  80 SE17      29.92F
ALBERT LEA     CLOUDY    36  30  80 SE23G31   29.86R
$$
MNZ078>079-086>088-094>096-232100-
   Southeast Minnesota

CITY           SKY/WX    TMP DP  RH WIND       PRES   REMARKS
ROCHESTER      CLOUDY    37  31  78 SE31G44   29.84F
RED WING       CLOUDY    43  25  49 SE9G21    29.96F
STANTON        CLOUDY    39  31  72 SE9       29.94R
DODGE CENTER   CLOUDY    36  30  80 S21       29.94R
WINONA         CLOUDY    41  27  56 SE14G21   30.00F
AUSTIN         LGT RAIN  36  30  80 S15G26    29.89R
PRESTON        LGT RAIN  37  30  75 SE21G30   29.94F
$$
ABBREVIATIONS USED IN REMARKS
   TC - TEMPERATURES IN CELSIUS
  WCI - WIND CHILL INDEX
   HX - HEAT INDEX
  VSB - VISIBILITY
$$




USA.gov is the U.S. government's official web portal to all federal, state and local government web resources and services.